Flag for Isle of Man Weather past 2 weeks in Douglas, Isle of Man

Now
61 °F

Passing clouds.


Feels Like: 61 °F
Forecast: 58 / 63 °F
Wind: 13 mph from East

Location: Isle Of Man / Ronaldsway Airport

Current Time: Sep 19, 2014 at 6:50:35 AM

Latest Report: Sep 19, 2014 at 6:20 AM


Visibility: 5 mi

Pressure: 29.86 "Hg

Humidity: 88%

Dew point: 57 °F

Location of DouglasLocation

Historic Weather in Douglas — Graph

°F

Douglas temperature yesterday

Maximum temperature yesterday: 66 °F (at 3:20 PM)
Minimum temperature yesterday: 57 °F (at 12:50 AM)
Average temperature yesterday: 63 °F

Past Weeks' High & Low Weather Summary

 TemperatureHumidityPressure
High68 °F (Sep 5, 12:20 PM)100% (Sep 11, 6:50 AM)30.36 "Hg (Sep 11, 6:50 AM)
Low50 °F (Sep 8, 6:20 AM)55% (Sep 6, 3:50 PM)29.83 "Hg (Sep 18, 3:20 PM)
Average60 °F80%30.10 "Hg
* Reported Sep 4 4:20 AM — Sep 19 4:50 AM, Douglas, Weather by CustomWeather, © 2014

Note: Actual official high and low records may vary slightly from our data, if they occured in-between our weather recording intervals... More about our weather records

Advertising

Douglas weather history for previous 24 hours

 ConditionsComfort  
Time TempWeatherWind HumidityBarometerVisibility
4:50 AM
Sep 19
61 °FPassing clouds.15 mph88%29.86 "Hg4 mi
3:50 AM61 °FLow clouds.13 mph94%29.86 "Hg4 mi
2:50 AM61 °FPassing clouds.12 mph94%29.86 "Hg4 mi
1:50 AM63 °FPassing clouds.12 mph88%29.86 "Hg4 mi
12:50 AM63 °FPassing clouds.12 mph88%29.86 "Hg4 mi
11:50 PM
Sep 18
63 °FPassing clouds.14 mph88%29.86 "Hg4 mi
10:50 PM64 °FPassing clouds.14 mph88%29.86 "Hg5 mi
9:50 PM64 °FClear.13 mph83%29.86 "Hg5 mi
9:20 PM64 °FClear.13 mph83%29.86 "Hg4 mi
8:20 PM64 °FClear.9 mph83%29.86 "Hg5 mi
7:50 PM64 °FClear.13 mph83%29.86 "Hg5 mi
7:20 PM64 °FClear.12 mph83%29.83 "Hg5 mi
6:50 PM64 °FClear.14 mph83%29.83 "Hg5 mi
6:20 PM66 °FClear.14 mph73%29.83 "Hg5 mi
5:50 PM66 °FClear.15 mph73%29.83 "Hg5 mi
5:20 PM66 °FClear.15 mph73%29.83 "Hg5 mi
4:50 PM66 °FClear.16 mph73%29.83 "Hg5 mi
4:20 PM66 °FClear.15 mph73%29.83 "Hg5 mi
3:50 PM66 °FPassing clouds.15 mph73%29.83 "Hg5 mi
3:20 PM66 °FPassing clouds.15 mph73%29.83 "Hg5 mi
2:50 PM64 °FScattered clouds.13 mph78%29.86 "Hg5 mi
2:20 PM64 °FOvercast.13 mph78%29.86 "Hg6 mi
1:50 PM64 °FPartly sunny.13 mph78%29.86 "HgN/A
1:20 PM64 °FOvercast.13 mph78%29.86 "HgN/A
12:50 PM63 °FOvercast.12 mph83%29.86 "HgN/A
12:20 PM63 °FOvercast.12 mph83%29.86 "Hg6 mi
11:50 AM63 °FOvercast.12 mph83%29.86 "Hg6 mi
11:20 AM63 °FPartly sunny.14 mph83%29.86 "Hg5 mi
10:50 AM63 °FPartly sunny.15 mph83%29.86 "Hg5 mi
10:20 AM63 °FPassing clouds.12 mph88%29.86 "Hg5 mi
9:50 AM63 °FScattered clouds.13 mph88%29.86 "Hg4 mi
9:20 AM61 °FScattered clouds.10 mph94%29.86 "Hg4 mi
8:50 AM61 °FPartly sunny.12 mph94%29.86 "Hg4 mi
8:20 AM61 °FPartly sunny.12 mph94%29.86 "Hg4 mi
7:50 AM61 °FPassing clouds.7 mph94%29.86 "Hg4 mi
7:20 AM59 °FPassing clouds.7 mph94%29.86 "Hg4 mi
6:50 AM59 °FPassing clouds.7 mph94%29.86 "Hg4 mi
6:20 AM59 °FPassing clouds.6 mph94%29.86 "Hg5 mi
Weather by CustomWeather, © 2014

See weather overviewHow to use our weather pages